Weather History for Minot, ND

Change the Weather History Date:

Tuesday, February 26, 2013

  Actual Average Record
Temperature  
Mean Temperature 27 °F 20 °F  
Max Temperature 36 °F 29 °F 54 °F (1988)
Min Temperature 17 °F 12 °F -34 °F (1919)
Degree Days  
Heating Degree Days 38 45  
Month to date heating degree days 1240 1257  
Since 1 July heating degree days 6641 6489  
Moisture  
Dew Point 20 °F    
Average Humidity 74    
Maximum Humidity 92    
Minimum Humidity 56    
Precipitation  
Precipitation 0.00 in 0.02 in 0.66 in (1958)
Month to date precipitation 0.43 0.37  
Year to date precipitation 0.54 0.88  
Sea Level Pressure  
Sea Level Pressure 30.00 in    
Wind  
Wind Speed 9 mph (West)    
Max Wind Speed 18 mph    
Max Gust Speed 23 mph    
Visibility 10 miles    
Events      
T = Trace of Precipitation, MM = Missing Value Source: NWS Daily Summary

Daily Weather History Graph

Daily Weather History Graph

Search for Another Location

Airport:

Trip Planner

Search our weather history database for the weather conditions in past years. The results will help you decide how hot, cold, wet, or windy it might be!

Date:

Astronomy

Feb. 26, 2013 Rise Set
Actual Time 7:31 AM CST 6:25 PM CST
Civil Twilight 7:00 AM CST 6:56 PM CST
Nautical Twilight 6:24 AM CST 7:32 PM CST
Astronomical Twilight 5:47 AM CST 8:08 PM CST
Moon 7:54 PM CST (2/26) 7:27 AM CST (2/26)
Length of Visible Light 11h 56m
Length of Day
10h 53m
Full, 99% of the Moon is Illuminated
Feb 26
Full
Mar 4
Last Quarter
Mar 11
New
Mar 19
First Quarter
Mar 27
Full

Hourly Weather History & Observations

Time (CST) Temp. Windchill Dew Point Humidity Pressure Visibility Wind Dir Wind Speed Gust Speed Precip Events Conditions
12:54 AM 33.1 °F - 19.9 °F 59% 29.86 in 10.0 mi Calm Calm - N/A   Clear
1:54 AM 30.9 °F 22.2 °F 21.9 °F 69% 29.86 in 10.0 mi South 10.4 mph - N/A   Clear
2:54 AM 30.0 °F 20.0 °F 21.9 °F 72% 29.86 in 10.0 mi SSW 12.7 mph - N/A   Clear
3:54 AM 28.0 °F 16.5 °F 21.0 °F 75% 29.86 in 10.0 mi SSW 15.0 mph - N/A   Clear
4:54 AM 28.0 °F 16.1 °F 21.0 °F 75% 29.86 in 10.0 mi SSW 16.1 mph - N/A   Clear
5:54 AM 26.1 °F 15.0 °F 19.9 °F 78% 29.89 in 10.0 mi SSW 12.7 mph - N/A   Clear
6:54 AM 24.1 °F 19.7 °F 19.0 °F 81% 29.91 in 10.0 mi Variable 3.5 mph - N/A   Clear
7:54 AM 19.0 °F - 15.1 °F 85% 29.94 in 10.0 mi Calm Calm - N/A   Clear
8:54 AM 23.0 °F 14.7 °F 18.0 °F 81% 29.96 in 10.0 mi SSW 6.9 mph - N/A   Clear
9:54 AM 26.1 °F 18.4 °F 19.0 °F 75% 29.96 in 10.0 mi SW 6.9 mph - N/A   Clear
10:54 AM 28.9 °F 20.4 °F 21.0 °F 72% 29.96 in 10.0 mi SW 9.2 mph - N/A   Clear
11:54 AM 33.1 °F 30.0 °F 23.0 °F 66% 29.96 in 10.0 mi SW 3.5 mph - N/A   Clear
12:54 PM 34.0 °F 27.2 °F 25.0 °F 70% 29.97 in 10.0 mi NW 8.1 mph - N/A   Clear
1:49 PM 30.2 °F 23.4 °F 23.0 °F 75% 29.93 in 2.0 mi NNE 6.9 mph - N/A   Haze
1:54 PM 30.0 °F 23.2 °F 23.0 °F 75% 30.00 in 9.0 mi North 6.9 mph - N/A   Mostly Cloudy
2:54 PM 28.9 °F 22.8 °F 21.9 °F 75% 30.01 in 10.0 mi NNE 5.8 mph - N/A   Overcast
3:54 PM 27.0 °F 18.7 °F 21.0 °F 78% 30.04 in 10.0 mi North 8.1 mph - N/A   Overcast
4:54 PM 24.1 °F 13.7 °F 19.0 °F 81% 30.07 in 10.0 mi WNW 10.4 mph - N/A   Overcast
5:54 PM 24.1 °F 13.7 °F 19.9 °F 84% 30.09 in 10.0 mi WNW 10.4 mph - N/A   Overcast
6:54 PM 24.1 °F 13.7 °F 19.0 °F 81% 30.12 in 10.0 mi West 10.4 mph - N/A   Overcast
7:54 PM 21.9 °F 10.4 °F 18.0 °F 85% 30.14 in 10.0 mi West 11.5 mph - N/A   Partly Cloudy
8:54 PM 21.9 °F 9.8 °F 19.0 °F 89% 30.14 in 10.0 mi WNW 12.7 mph - N/A   Clear
9:54 PM 23.0 °F 11.7 °F 19.9 °F 88% 30.16 in 9.0 mi West 11.5 mph - N/A   Clear
10:54 PM 21.9 °F 11.0 °F 19.0 °F 89% 30.17 in 10.0 mi WNW 10.4 mph - N/A   Mostly Cloudy
11:54 PM 19.9 °F 7.9 °F 16.0 °F 85% 30.18 in 9.0 mi WNW 11.5 mph - N/A   Mostly Cloudy